Location: East Guldeford
(50.9500°N, 0.7500°E)
Time: 18:27:54
(UTC+00:00)

CARTOSAT-1 - Pass Details

Date: 12 May 2021
Orbit: 616 x 618 km, 97.8° (Epoch: 16 June)

Event Time Altitude Azimuth Distance (km) Brightness Sun altitude
Exits shadow 21:13:18 16° 166° (SSE) 1,639 5.2 -12.3°
Maximum altitude 21:16:46 87° 255° (WSW) 627 3.6 -12.7°
Drops below altitude 10° 21:21:07 10° 346° (NNW) 1,994 7.3 -13.1°
Sets 21:23:19 0° 346° (NNW) 2,905 8.4 -13.3°
